This demonstration page uses our WeatherBlox Daily Observations layout. Learn more.

Left ArrowRight Arrow

Hourly Observations for May 8, 2020

Temp ( °F °C ) Dew Point ( °F °C ) Humidity (%) Winds ( mph kmh ) Pressure ( in mb ) Visibility ( mi km ) Precip ( " mm )
12:53 am 00:53 Cloudy 54 12.2 43 6.1 67 67 WSW 5 7 29.92 1013 10 16.0934 N/A
1:53 am 01:53 Cloudy 53 11.7 43 6.1 69 69 W 6 9 29.91 1013 10 16.0934 N/A
2:53 am 02:53 Cloudy with Light Rain 52 11.1 45 7.2 77 77 NW 5 7 29.89 1012 10 16.0934 0.01 0.254
3:53 am 03:53 Cloudy with Rain 52 11.1 47 8.3 83 83 W 12 19 29.91 1013 4 6.43736 0.07 1.778
4:53 am 04:53 Cloudy with Light Rain 51 10.6 47 8.3 86 86 SW 10 17 29.86 1011 9 14.48406 0.01 0.254
5:53 am 05:53 Cloudy with Light Rain 51 10.6 47 8.3 86 86 WSW 8 13 29.84 1011 10 16.0934 0.01 0.254
6:53 am 06:53 Cloudy with Light Rain 50 10 49 9.4 96 96 WSW 6 9 29.85 1011 8 12.87472 0.03 0.762
7:53 am 07:53 Cloudy with Light Rain 50 10 50 10 100 100 SW 3 6 29.85 1011 7 11.26538 0.03 0.762
8:53 am 08:53 Cloudy with Light Rain 50 10 50 10 100 100 VRB 3 6 29.84 1011 4 6.43736 0.05 1.27
9:23 am 09:23 Cloudy with Light Rain 50 10 50 10 100 100 W 5 7 29.84 1010 3 4.82802 0.03 0.762
9:32 am 09:32 Cloudy with Light Rain 50 10 50 10 100 100 W 3 6 29.83 1010 3 4.82802 0.03 0.762
9:53 am 09:53 Cloudy with Rain 50 10 50 10 100 100 W 5 7 29.82 1010 3 4.82802 0.06 1.524
10:53 am 10:53 Cloudy with Light Rain 50 10 50 10 100 100 W 5 7 29.83 1010 4 6.43736 0.06 1.524
11:14 am 11:14 Cloudy with Rain 50 10 50 10 100 100 W 3 6 29.84 1010 3 4.82802 0.03 0.762
11:19 am 11:19 Cloudy with Rain 50 10 50 10 100 100 W 5 7 29.84 1010 2.5 4.02335 0.04 1.016
11:22 am 11:22 Cloudy with Rain 50 10 50 10 100 100 WNW 8 13 29.84 1010 2 3.21868 0.06 1.524
11:26 am 11:26 Cloudy with Heavy Rain 49 9.4 49 9.4 100 100 NNW 16 26 29.85 1011 1.75 2.816345 0.09 2.286
11:36 am 11:36 Cloudy with Rain 47 8.3 45 7.2 93 93 NNW 10 17 29.85 1011 2 3.21868 0.13 3.302
11:44 am 11:44 Cloudy with Light Rain 48 8.9 46 7.8 93 93 NW 8 13 29.85 1011 7 11.26538 0.14 3.556
11:53 am 11:53 Cloudy with Light Rain 49 9.4 47 8.3 93 93 WNW 7 11 29.84 1011 7 11.26538 0.14 3.556
12:53 pm 12:53 Cloudy with Light Rain 49 9.4 49 9.4 100 100 WSW 7 11 29.84 1010 10 16.0934 0.02 0.508
1:39 pm 13:39 Cloudy with Light Rain 49 9.4 46 7.8 90 90 NNW 14 22 29.86 1011 10 16.0934 0.01 0.254
1:53 pm 13:53 Mostly Cloudy 49 9.4 45 7.2 86 86 NNW 10 17 29.85 1011 10 16.0934 0.01 0.254
2:05 pm 14:05 Mostly Cloudy 49 9.4 42 5.6 77 77 NNW 15 24 29.86 1011 10 16.0934 N/A
2:53 pm 14:53 Partly Cloudy 50 10 38 3.3 63 63 N 17 28 29.88 1012 10 16.0934 N/A
3:53 pm 15:53 Mostly Cloudy 53 11.7 37 2.8 55 55 N 13 20 29.88 1012 10 16.0934 N/A
4:53 pm 16:53 Cloudy 52 11.1 34 1.1 50 50 N 10 17 29.89 1012 10 16.0934 N/A
5:53 pm 17:53 Mostly Cloudy 52 11.1 31 -0.6 45 45 NW 14 22 29.91 1013 10 16.0934 N/A
6:53 pm 18:53 Mostly Cloudy 52 11.1 26 -3.3 37 37 N 12 19 29.93 1014 10 16.0934 N/A
7:53 pm 19:53 Sunny 48 8.9 24 -4.4 39 39 NW 18 30 29.98 1015 10 16.0934 N/A
8:53 pm 20:53 Clear 44 6.7 21 -6.1 40 40 NW 15 24 30.04 1017 10 16.0934 N/A
9:53 pm 21:53 Clear 40 4.4 21 -6.1 47 47 NW 12 19 30.1 1019 10 16.0934 N/A
10:53 pm 22:53 Clear 39 3.9 17 -8.3 41 41 NW 14 22 30.14 1021 10 16.0934 N/A
11:53 pm 23:53 Clear 36 2.2 16 -8.9 44 44 NW 7 11 30.15 1021 10 16.0934 N/A

Powered by AerisWeather